Kirksville, MO

6:55 AM CDT on July 28, 2017 (GMT -0500)
Kirksville Regional

Weather History for KIRK - November, 2014

Change the Weather History Date:

Thursday, November 6, 2014

  Actual Average Record
Temperature  
Mean Temperature 39 °F 45 °F  
Max Temperature 51 °F 55 °F 77 °F (1924)
Min Temperature 27 °F 35 °F 15 °F (1959)
Degree Days  
Heating Degree Days 26 20  
Month to date heating degree days 109 113  
Since 1 July heating degree days 541 602  
Cooling Degree Days 0 0  
Month to date cooling degree days 0 0  
Year to date cooling degree days 958 939  
Moisture  
Dew Point 30 °F    
Average Humidity 67    
Maximum Humidity 92    
Minimum Humidity 42    
Precipitation  
Precipitation 0.00 in 0.10 in 1.62 in (2008)
Month to date precipitation 0.23 0.73  
Year to date precipitation 42.43 35.57  
Sea Level Pressure  
Sea Level Pressure 30.24 in    
Wind  
Wind Speed 13 mph (NW)    
Max Wind Speed 28 mph    
Max Gust Speed 38 mph    
Visibility 10 miles    
Events      
T = Trace of Precipitation, MM = Missing Value Source: NWS Daily Summary

Daily Weather History Graph

Daily Weather History Graph

Search for Another Location

Airport or City:

Trip Planner

Search our weather history database for the weather conditions in past years. The results will help you decide how hot, cold, wet, or windy it might be!

Date:

Astronomy

Nov. 06, 2014 Rise Set
Actual Time 6:45 AM CST 5:01 PM CST
Civil Twilight 6:16 AM CST 5:30 PM CST
Nautical Twilight 5:44 AM CST 6:02 PM CST
Astronomical Twilight 5:12 AM CST 6:34 PM CST
Moon 5:09 PM CST (11/6) 6:17 AM CST (11/6)
Length of Visible Light 11h 13m
Length of Day
10h 16m
Full, 100% of the Moon is Illuminated
Nov 6
Full
Nov 6
Full
Nov 14
Last Quarter
Nov 22
New
Nov 29
First Quarter

Hourly Weather History & Observations

Time (CST) Temp. Windchill Dew Point Humidity Pressure Visibility Wind Dir Wind Speed Gust Speed Precip Events Conditions
12:55 AM 48.0 °F - 34.0 °F 58% 30.05 in 10.0 mi WNW 17.3 mph 28.8 mph N/A   Clear
1:55 AM 46.0 °F 40.2 °F 33.1 °F 61% 30.05 in 10.0 mi WNW 12.7 mph - N/A   Clear
2:55 AM 45.0 °F 38.2 °F 34.0 °F 65% 30.06 in 10.0 mi West 15.0 mph - N/A   Clear
3:55 AM 45.0 °F 37.9 °F 34.0 °F 65% 30.07 in 10.0 mi WNW 16.1 mph 24.2 mph N/A   Mostly Cloudy
4:55 AM 46.0 °F 38.8 °F 35.1 °F 66% 30.09 in 10.0 mi WNW 18.4 mph 27.6 mph N/A   Overcast
5:55 AM 46.0 °F 38.0 °F 35.1 °F 66% 30.12 in 10.0 mi NW 21.9 mph 32.2 mph N/A   Overcast
6:55 AM 43.0 °F 35.7 °F 33.1 °F 68% 30.17 in 10.0 mi NW 15.0 mph 26.5 mph N/A   Overcast
7:07 AM 43.0 °F 35.1 °F 33.1 °F 68% 30.16 in 10.0 mi NW 17.3 mph 27.6 mph N/A   Overcast
7:55 AM 42.1 °F 32.8 °F 33.1 °F 70% 30.21 in 10.0 mi NW 21.9 mph 29.9 mph N/A   Overcast
8:55 AM 42.1 °F 33.3 °F 32.0 °F 67% 30.26 in 10.0 mi NNW 19.6 mph 35.7 mph N/A   Overcast
9:16 AM 43.0 °F 36.4 °F 32.0 °F 65% 30.24 in 10.0 mi NNW 12.7 mph 27.6 mph N/A   Overcast
9:55 AM 44.1 °F 35.7 °F 30.9 °F 60% 30.28 in 10.0 mi NNW 20.7 mph 29.9 mph N/A   Mostly Cloudy
10:10 AM 43.0 °F 34.2 °F 30.9 °F 62% 30.27 in 10.0 mi NNW 20.7 mph 33.4 mph N/A   Mostly Cloudy
10:55 AM 46.0 °F 37.8 °F 30.0 °F 54% 30.30 in 10.0 mi NNW 23.0 mph 32.2 mph N/A   Partly Cloudy
11:55 AM 48.0 °F - 30.0 °F 50% 30.29 in 10.0 mi NW 19.6 mph 27.6 mph N/A   Clear
12:55 PM 48.9 °F - 28.9 °F 46% 30.29 in 10.0 mi NW 17.3 mph 26.5 mph N/A   Clear
1:55 PM 48.9 °F - 28.9 °F 46% 30.31 in 10.0 mi NW 13.8 mph 26.5 mph N/A   Clear
2:55 PM 48.9 °F - 27.0 °F 43% 30.31 in 10.0 mi NNW 18.4 mph 27.6 mph N/A   Clear
3:55 PM 48.9 °F - 28.0 °F 44% 30.32 in 10.0 mi NNW 12.7 mph 19.6 mph N/A   Clear
4:55 PM 45.0 °F 40.6 °F 27.0 °F 49% 30.32 in 10.0 mi NNW 8.1 mph - N/A   Clear
5:55 PM 42.1 °F 38.4 °F 28.0 °F 58% 30.34 in 10.0 mi NW 5.8 mph - N/A   Clear
6:55 PM 39.9 °F 35.8 °F 27.0 °F 60% 30.34 in 10.0 mi NW 5.8 mph - N/A   Clear
7:55 PM 37.9 °F 35.5 °F 27.0 °F 65% 30.34 in 10.0 mi WNW 3.5 mph - N/A   Clear
8:55 PM 36.0 °F 33.3 °F 27.0 °F 70% 30.34 in 10.0 mi NW 3.5 mph - N/A   Clear
9:55 PM 28.9 °F 25.2 °F 26.1 °F 89% 30.35 in 10.0 mi West 3.5 mph - N/A   Clear
10:55 PM 28.0 °F - 26.1 °F 92% 30.34 in 10.0 mi Calm Calm - N/A   Clear
11:55 PM 28.0 °F - 26.1 °F 92% 30.32 in 10.0 mi Calm Calm - N/A   Clear